Погода в Ярком Поле

Россия / Республика Крым     45°12′22″N   35°12′03″E
темп.,
°C
ветер,
м/с
пор.,
м/с
влажн.,
%
обл.,
%
осадки,
мм/ч
давл.,
гПа
погр.,
м
23 октября, сб
сб2300:00+13юв118274 0.0 101815
03:00+13ююв228690 0.0 101833
06:00+13ю1181100 0.0 101724
09:00+15ююв1168100 0.0 101863
12:00+19юз1249100 0.0 1018522
15:00+21зсз4646100 0.0 10171191
18:00+17зсз466595 0.0 101792
21:00+15сз488235 0.0 1019203
24 октября, вс
вс2400:00+13с5788100 0.1 1020405
03:00+13с3488100 0.8 1020358
06:00+12с4582100 0.0 1020409
09:00+12с4673100 0.8 1022529
12:00+11ссз5666100 2.2 1023860
15:00+12с6758100 2.6 10221099
18:00+11ссз5749100 0.0 1024676
21:00+10сз69535 0.0 1026653
25 октября, пн
пн2500:00+8сз69635 0.0 1027443
03:00+8сз586934 0.0 1027526
06:00+7сз687058 0.1 1029666
09:00+8ссз786458 0.1 10301140
12:00+9ссз675621 0.0 10311348
15:00+8с55545 0.0 10311143
18:00+7с35545 0.0 1032412
21:00+7ссв23515 0.0 1033399
26 октября, вт
вт2600:00+6всв13535 0.0 1032396
03:00+5ююз13585 0.0 1033336
06:00+4ююз11623 0.0 103287
09:00+7вюв35565 0.0 1032398
12:00+10всв56462 0.0 10321150
15:00+10всв76430 0.0 10301016
18:00+8в68520 0.0 1030388
21:00+6вюв48570 0.0 1029306
27 октября, ср
ср2700:00+6вюв48630 0.0 1028246
03:00+5вюв46680 0.0 1027200
06:00+4вюв46750 0.0 1026166
09:00+7в45680 0.0 1025250
12:00+12вюв23550 0.0 1024626
15:00+13всв33530 0.0 1022648
18:00+9св34710 0.0 1023126
21:00+9с11735 0.0 1023101